Weather History for KELZ - July, 2013

Change the Weather History Date:

Saturday, July 27, 2013

  Actual Average (KBFD) Record (KBFD)
Temperature  
Mean Temperature 64 °F 65 °F  
Max Temperature 71 °F 77 °F 85 °F (1983)
Min Temperature 57 °F 53 °F 38 °F (2001)
Degree Days  
Heating Degree Days 1 0  
Month to date heating degree days 1  
Since 1 June heating degree days 146  
Since 1 July heating degree days 1  
Cooling Degree Days 0 2  
Month to date cooling degree days 62  
Year to date cooling degree days 112  
Since 1 June cooling degree days 102  
Growing Degree Days 14 (Base 50)    
Moisture  
Dew Point 59 °F    
Average Humidity 86    
Maximum Humidity 100    
Minimum Humidity 66    
Precipitation  
Precipitation 0.35 in 0.13 in 1.22 in (1984)
Month to date precipitation 3.65  
Year to date precipitation 25.30  
Sea Level Pressure  
Sea Level Pressure 29.97 in    
Wind  
Wind Speed 5 mph (SSE)    
Max Wind Speed 9 mph    
Max Gust Speed -    
Visibility 8 miles    
Events Rain , Thunderstorm    
T = Trace of Precipitation, MM = Missing Value Source: NWS Daily Summary

Daily Weather History Graph

Daily Weather History Graph

Search for Another Location

Airport or City:

Trip Planner

Search our weather history database for the weather conditions in past years. The results will help you decide how hot, cold, wet, or windy it might be!

Date:

Astronomy

Jul. 27, 2013 Rise Set
Actual Time 6:00 AM EDT 8:35 PM EDT
Civil Twilight 5:28 AM EDT 9:07 PM EDT
Nautical Twilight 4:48 AM EDT 9:47 PM EDT
Astronomical Twilight 4:02 AM EDT 10:33 PM EDT
Moon 11:14 PM EDT (7/27) 11:46 AM EDT (7/27)
Length of Visible Light 15h 39m
Length of Day
14h 35m
Waning Gibbous, 71% of the Moon is Illuminated
Jul 27
Waning Gibbous
Jul 29
Last Quarter
Aug 6
New
Aug 14
First Quarter
Aug 20
Full

Hourly Weather History & Observations

Time (EDT) Temp. Dew Point Humidity Pressure Visibility Wind Dir Wind Speed Gust Speed Precip Events Conditions
12:56 AM 59.0 °F 51.1 °F 75% 30.06 in 10.0 mi South 4.6 mph - N/A   Clear
1:56 AM 61.0 °F 52.0 °F 72% 30.04 in 10.0 mi South 4.6 mph - N/A   Clear
2:56 AM 57.0 °F 52.0 °F 83% 30.02 in 10.0 mi Calm Calm - N/A   Clear
3:56 AM 60.1 °F 52.0 °F 75% 30.01 in 10.0 mi South 5.8 mph - N/A   Clear
4:56 AM 57.9 °F 52.0 °F 81% 30.01 in 10.0 mi SSE 5.8 mph - N/A   Clear
5:56 AM 57.9 °F 52.0 °F 81% 30.01 in 10.0 mi SSE 4.6 mph - N/A   Clear
6:56 AM 59.0 °F 53.1 °F 81% 30.01 in 10.0 mi SSE 4.6 mph - N/A   Clear
7:56 AM 60.1 °F 55.0 °F 83% 30.01 in 10.0 mi SSE 3.5 mph - N/A   Clear
8:56 AM 63.0 °F 57.0 °F 81% 30.01 in 10.0 mi Variable 5.8 mph - N/A   Clear
9:56 AM 66.9 °F 57.9 °F 73% 30.00 in 10.0 mi South 8.1 mph - N/A   Clear
10:56 AM 69.1 °F 59.0 °F 70% 30.00 in 10.0 mi South 6.9 mph - N/A   Clear
11:56 AM 71.1 °F 59.0 °F 66% 30.00 in 10.0 mi South 4.6 mph - N/A   Clear
12:56 PM 71.1 °F 59.0 °F 66% 29.99 in 10.0 mi Variable 3.5 mph - N/A   Mostly Cloudy
1:56 PM 69.1 °F 60.1 °F 73% 29.98 in 10.0 mi Variable 4.6 mph - 0.00 in Rain Light Rain
2:56 PM 64.9 °F 62.1 °F 90% 30.01 in 4.0 mi WSW 4.6 mph - 0.04 in Rain Rain
3:56 PM 66.0 °F 63.0 °F 90% 29.96 in 7.0 mi South 6.9 mph - 0.04 in Rain Light Rain
4:56 PM 64.0 °F 61.0 °F 90% 29.95 in 4.0 mi SSE 5.8 mph - 0.08 in Rain Rain
5:23 PM 62.6 °F 60.8 °F 94% 29.96 in 3.0 mi SSE 8.1 mph - 0.09 in Rain , Thunderstorm Heavy Rain
5:30 PM 62.6 °F 60.8 °F 94% 29.96 in 2.0 mi SE 9.2 mph - 0.14 in Rain , Thunderstorm Heavy Rain
5:37 PM 62.6 °F 60.8 °F 94% 29.95 in 4.0 mi SSE 8.1 mph - 0.15 in Rain Rain
5:56 PM 64.0 °F 61.0 °F 90% 29.94 in 10.0 mi South 5.8 mph - 0.15 in   Overcast
6:56 PM 64.0 °F 61.0 °F 90% 29.94 in 10.0 mi South 4.6 mph - 0.01 in Rain Light Rain
7:56 PM 63.0 °F 61.0 °F 93% 29.93 in 5.0 mi ESE 4.6 mph - 0.02 in Rain Light Rain
8:10 PM 62.6 °F 60.8 °F 94% 29.94 in 5.0 mi SE 4.6 mph - 0.00 in Rain Light Rain
8:56 PM 63.0 °F 61.0 °F 93% 29.93 in 10.0 mi SSE 3.5 mph - 0.01 in   Mostly Cloudy
9:18 PM 62.6 °F 60.8 °F 94% 29.95 in 9.0 mi SSE 4.6 mph - 0.00 in   Overcast
9:34 PM 62.6 °F 60.8 °F 94% 29.95 in 8.0 mi SE 5.8 mph - 0.00 in Rain Light Rain
9:56 PM 63.0 °F 61.0 °F 93% 29.92 in 7.0 mi SE 3.5 mph - 0.00 in Rain Light Rain
10:28 PM 64.4 °F 62.6 °F 94% 29.94 in 9.0 mi SSE 4.6 mph - 0.00 in   Overcast
10:45 PM 62.6 °F 62.6 °F 100% 29.93 in 5.0 mi Calm Calm - 0.00 in   Overcast
10:53 PM 62.6 °F 62.6 °F 100% 29.93 in 5.0 mi SE 3.5 mph - 0.00 in   Overcast
10:56 PM 63.0 °F 62.1 °F 97% 29.91 in 5.0 mi SSE 3.5 mph - 0.00 in   Overcast
11:26 PM 64.4 °F 62.6 °F 94% 29.92 in 9.0 mi South 3.5 mph - N/A   Overcast
11:54 PM 64.4 °F 62.6 °F 94% 29.92 in 10.0 mi SSE 5.8 mph - N/A   Overcast
11:56 PM 64.9 °F 62.1 °F 90% 29.89 in 10.0 mi South 5.8 mph - N/A   Overcast